Showing default

GLOBALSTAR M087, 52888

Orbit data source: Space-Track

GLOBALSTAR M087, 52888 is a payload satellite owned by Globalstar (US) in LEO that was launched on Sun, 19 Jun 2022 UTC via an FALCON 9 launch vehicle from the Air Force Eastern Test Range (AFETR). Payload-class satellites include a variety of spacecraft equipped with specific instruments for various scientific and technological missions. These include communications satellites like Starlink; space stations such as the ISS; scientific satellites like the Hubble; Earth observation satellites from companies like Planet Labs, Umbra, and HawkEye 360; GPS; miniature CubeSats for education and research; and military/defense satellites.

Loading next visibility...
Identifier
52888, 2022-064A
Orbit
LEO
Last TLE update
18 hours ago
Origin
Manufacturer
Thales Alenia
Mission
Operational Commercial Communications
Bus & Motor
PRISMA?, LS-400 AOCS?
Mass
715 kg wet, ~500 kg dry
Launch date (UTC)
2022-06-19 (3 years ago)
Launch vehicle
FALCON 9
Launch site
Air Force Eastern Test Range (AFETR)
Object type
Payload
Rocket body
Debris
Shape & HBR
Box + 2 Pan, 12 m
Radar Cross Section
28.800 m², Large (>1 m²)

Expand to show TLE details & history

TLE from 18 hours ago
0 GLOBALSTAR M087
1 52888U 22064A   25183.81968019 -.00000103  00000-0  34072-5 0  9992
2 52888  52.0007  46.2073 0000667  72.7949 287.2990 12.62263643147011
Epoch: 2025-07-02T19:40Z
TLE epoch observation values (Epoch: 2025-07-02T19:40:20.368Z)
Latitude
-0.00007°
Longitude
-169.97293°
Altitude
1,414.142 km
Speed
7.155 km/s
True Right ascension
03h 04m 49s
True Declination
0° 00' 00"
Sunlit
Object was in daylight at epoch
Visualization orbit readout
Latitude
32.39393°
Longitude
-21.78853°
Altitude
1,415.372 km
Speed
7.157 km/s
Apparent Right ascension
13h 05m 47s
Apparent Declination
0° 25' 25"
Sunlit
Object is in daylight
Visualization observer readout
Local Sidereal Time
01:16:51
Azimuth
4.269° NNE
Elevation
-49.581°
Doppler factor
1
Orbital elements
Apogee altitude
1,414.527 km
Perigee altitude
1,413.488 km
Semi-major axis
7,792.144 km
Eccentricity
0.00007
Inclination
52.0007°
RAAN
46.2073°
Arg. of periapsis
72.7949°
True anomaly
Unknown
Mean anomaly
287.299°
Eccentric anomaly
Unknown
Mean motion
3.15542 °/min
Orbital period
114.09 mins
BSTAR
0.0000034072
Loading maneuver chart data...
Loading SW <> Apogee altitude chart data...
Loading historical data...
Loading historical data...
Loading historical data...
Loading historical data...
Loading historical data...
Loading historical data...
Loading historical data...
Other satellites on launch #64 in the year 2022 (2022-06-19 UTC)

GLOBALSTAR M087 Visibility forecast

Observer location: undefined°, undefined°

Span
Click to sort rows by Start time (UTC) header in descending order
Start Az.
Max El. time (UTC)
Max El. Az.
Max El.
End time (UTC)
End Az.
15 mins2025-07-03 16:42:01.483Z202.13° SSW2025-07-03 16:49:01.483Z135.291° SSE38.342°2025-07-03 16:57:01.483Z59.7° ENE
15 mins2025-07-03 18:42:01.483Z256.5° W2025-07-03 18:49:01.483Z334.12° NNW40.538°2025-07-03 18:57:01.483Z50.175° ENE
14 mins2025-07-03 20:44:01.483Z297.74° NW2025-07-03 20:50:01.483Z353.392° N31.16°2025-07-03 20:58:01.483Z62.352° ENE
15 mins2025-07-03 22:45:01.483Z312.632° NW2025-07-03 22:52:01.483Z27.018° NE37.459°2025-07-03 23:00:01.483Z96.788° ESE
15 mins2025-07-04 00:45:01.483Z302.649° NW2025-07-04 00:52:01.483Z222.141° SW42.901°2025-07-04 01:00:01.483Z144.352° SSE
8 mins2025-07-04 02:47:01.483Z267.218° W2025-07-04 02:50:01.483Z244.55° WSW15.923°2025-07-04 02:55:01.483Z207.742° SW
|